Date String (YYYY-MM-DD hh:mm:ss) UTC,Instrument flags,absolute air pressure of the measurement (hPa),sample flow rate (lpm),inlet stack bypass flow (lpm),air temperature of the measurement (°C),ambient temperature measured by the external sensor (°C),aerosol sample conditioner tube jacket temperature (°C),OPC LED temperature (°C),internal box temperature (°C),relative humidity of the measurement (%),span deviation,mass concentration of particles derived from Lorenz-Mie calculation of OPC scattering (μg/m³),mass concentration of particles derived from Lorenz-Mie calculation of OPC scattering (μg/m³),mass concentration of particles derived from Lorenz-Mie calculation of OPC scattering (μg/m³)
DateTimeUTC,F1_M11,P_M11,Q1_M11,Q2_M11,T1_M11,T2_M11,T3_M11,T4_M11,T5_M11,U1_M11,ZSPAN_M11,X0_M11,X2_M11,X1_M11
2023-07-27 15:00:00,SystemResetWarning,0833.9,5.00,000.00,030.2,027.0,000.0,038.3,030.9,29.9,0000.0,0005.19,0003.06,0002.20
2023-07-27 15:01:00,SystemResetWarning,0833.9,5.00,000.00,030.2,027.3,000.0,038.3,031.0,30.9,0000.0,0005.31,0003.11,0002.24
2023-07-27 15:02:00,SystemResetWarning,0833.9,5.00,000.00,030.2,027.6,000.0,038.4,031.1,32.2,0000.0,0006.82,0003.11,0002.25
2023-07-27 15:03:00,SystemResetWarning,0834.0,4.99,000.00,030.2,027.7,000.0,038.3,031.1,31.8,0000.0,0006.64,0003.07,0002.24
2023-07-27 15:04:00,SystemResetWarning,0833.8,4.99,000.00,030.2,026.5,000.0,038.2,031.0,31.8,0000.0,0006.47,0003.02,0002.23
2023-07-27 15:05:00,SystemResetWarning,0833.9,5.01,000.00,030.1,025.3,000.0,038.1,030.8,32.1,0000.0,0006.53,0002.99,0002.23
2023-07-27 15:06:00,SystemResetWarning,0833.9,5.00,000.00,030.1,025.4,000.0,038.1,030.7,32.5,0000.0,0006.51,0003.00,0002.23
2023-07-27 15:07:00,SystemResetWarning,0833.8,4.99,000.00,030.0,025.7,000.0,038.1,030.6,32.7,0000.0,0006.53,0003.05,0002.24
2023-07-27 15:08:00,SystemResetWarning,0833.9,5.00,000.00,029.9,026.1,000.0,038.1,030.7,34.0,0000.0,0006.56,0003.09,0002.25
2023-07-27 15:09:00,SystemResetWarning,0833.8,4.99,000.00,029.9,026.5,000.0,038.2,030.7,35.5,0000.0,0006.85,0003.11,0002.25
2023-07-27 15:10:00,SystemResetWarning,0833.8,5.02,000.00,030.0,026.9,000.0,038.2,030.9,32.3,0000.0,0007.04,0003.12,0002.24
2023-07-27 15:11:00,SystemResetWarning,0833.9,4.97,000.00,030.2,027.2,000.0,038.2,031.0,29.3,0000.0,0006.94,0003.08,0002.21
2023-07-27 15:12:00,SystemResetWarning,0833.9,5.02,000.00,030.3,027.5,000.0,038.2,031.1,25.4,0000.0,0006.89,0003.04,0002.16
2023-07-27 15:13:00,SystemResetWarning,0833.9,5.00,000.00,030.4,027.6,000.0,038.2,031.1,24.7,0000.0,0005.55,0003.06,0002.14
2023-07-27 15:14:00,SystemResetWarning,0833.8,4.98,000.00,030.4,026.8,000.0,038.2,031.1,26.3,0000.0,0005.46,0003.02,0002.14
2023-07-27 15:15:00,SystemResetWarning,0833.8,5.02,000.00,030.4,025.5,000.0,038.1,030.9,25.5,0000.0,0005.67,0003.05,0002.17
2023-07-27 15:16:00,SystemResetWarning,0833.8,5.01,000.00,030.3,025.4,000.0,038.0,030.8,24.5,0000.0,0005.68,0003.08,0002.20
2023-07-27 15:17:00,SystemResetWarning,0833.8,4.99,000.00,030.2,025.7,000.0,038.1,030.6,27.0,0000.0,0006.42,0003.10,0002.22
2023-07-27 15:18:00,SystemResetWarning,0833.8,5.00,000.00,030.2,026.1,000.0,038.2,030.7,27.9,0000.0,0006.94,0003.10,0002.23
2023-07-27 15:19:00,SystemResetWarning,0833.8,5.00,000.00,030.1,026.5,000.0,038.2,030.7,27.8,0000.0,0007.03,0003.12,0002.25
2023-07-27 15:20:00,SystemResetWarning,0833.8,5.01,000.00,030.1,026.8,000.0,038.2,030.8,28.7,0000.0,0006.75,0003.11,0002.26
2023-07-27 15:21:00,SystemResetWarning,0833.8,5.00,000.00,030.1,027.2,000.0,038.3,030.9,27.8,0000.0,0006.76,0003.13,0002.27
2023-07-27 15:22:00,SystemResetWarning,0833.8,4.99,000.00,030.1,027.4,000.0,038.3,031.0,25.5,0000.0,0006.81,0003.14,0002.30
2023-07-27 15:23:00,SystemResetWarning,0833.8,4.99,000.00,030.1,027.7,000.0,038.3,031.0,27.9,0000.0,0006.94,0003.16,0002.32
2023-07-27 15:24:00,SystemResetWarning,0833.9,5.00,000.00,030.2,027.6,000.0,038.3,031.1,27.1,0000.0,0007.04,0003.18,0002.36
2023-07-27 15:25:00,SystemResetWarning,0833.8,5.01,000.00,030.1,026.4,000.0,038.1,030.9,24.2,0000.0,0007.24,0003.24,0002.39
2023-07-27 15:26:00,SystemResetWarning,0833.8,5.00,000.00,030.1,025.5,000.0,038.0,030.8,23.5,0000.0,0007.26,0003.28,0002.38
2023-07-27 15:27:00,SystemResetWarning,0833.8,5.01,000.00,030.0,025.6,000.0,038.0,030.7,24.3,0000.0,0007.13,0003.26,0002.38
2023-07-27 15:28:00,SystemResetWarning,0833.8,5.01,000.00,029.9,026.0,000.0,038.1,030.6,25.7,0000.0,0007.08,0003.24,0002.37
2023-07-27 15:29:00,SystemResetWarning,0833.8,5.00,000.00,029.9,026.4,000.0,038.1,030.7,26.7,0000.0,0006.40,0003.24,0002.37
2023-07-27 15:30:00,SystemResetWarning,0833.8,5.00,000.00,029.8,026.7,000.0,038.1,030.8,25.7,0000.0,0006.48,0003.20,0002.35
2023-07-27 15:31:00,SystemResetWarning,0833.9,5.00,000.00,029.8,027.1,000.0,038.1,030.8,25.9,0000.0,0007.68,0003.19,0002.33
2023-07-27 15:32:00,SystemResetWarning,0833.9,5.00,000.00,029.8,027.4,000.0,038.1,030.9,27.9,0000.0,0007.63,0003.18,0002.32
2023-07-27 15:33:00,SystemResetWarning,0833.8,4.99,000.00,029.9,027.6,000.0,038.1,031.0,28.7,0000.0,0007.68,0003.19,0002.31
2023-07-27 15:34:00,SystemResetWarning,0833.9,4.99,000.00,029.9,027.1,000.0,038.1,031.0,25.9,0000.0,0007.72,0003.20,0002.30
2023-07-27 15:35:00,SystemResetWarning,0833.8,5.00,000.00,029.8,025.7,000.0,037.9,030.7,23.9,0000.0,0007.77,0003.20,0002.27
2023-07-27 15:36:00,SystemResetWarning,0833.8,5.00,000.00,029.7,025.4,000.0,037.8,030.6,27.0,0000.0,0007.71,0003.15,0002.25
2023-07-27 15:37:00,SystemResetWarning,0833.8,5.01,000.00,029.7,025.7,000.0,037.8,030.5,26.4,0000.0,0007.57,0003.08,0002.24
2023-07-27 15:38:00,SystemResetWarning,0833.8,4.99,000.00,029.6,026.1,000.0,037.9,030.5,26.2,0000.0,0007.55,0003.10,0002.24
2023-07-27 15:39:00,SystemResetWarning,0833.8,4.99,000.00,029.6,026.5,000.0,037.9,030.6,25.0,0000.0,0007.23,0003.13,0002.23
2023-07-27 15:40:00,SystemResetWarning,0833.8,5.00,000.00,029.6,026.8,000.0,037.9,030.7,24.2,0000.0,0007.68,0003.13,0002.23
2023-07-27 15:41:00,SystemResetWarning,0833.8,5.00,000.00,029.6,027.1,000.0,037.9,030.8,27.3,0000.0,0008.38,0003.15,0002.24
2023-07-27 15:42:00,SystemResetWarning,0833.8,5.01,000.00,029.6,027.4,000.0,037.9,030.8,25.3,0000.0,0007.73,0003.19,0002.25
2023-07-27 15:43:00,SystemResetWarning,0833.8,5.00,000.00,029.6,027.0,000.0,037.8,030.9,25.7,0000.0,0007.65,0003.22,0002.25
2023-07-27 15:44:00,SystemResetWarning,0833.8,4.98,000.00,029.6,025.6,000.0,037.7,030.7,25.2,0000.0,0007.87,0003.20,0002.27
2023-07-27 15:45:00,SystemResetWarning,0833.8,5.01,000.00,029.5,025.2,000.0,037.6,030.6,23.0,0000.0,0008.06,0003.18,0002.28
2023-07-27 15:46:00,SystemResetWarning,0833.8,5.01,000.00,029.4,025.6,000.0,037.7,030.4,25.6,0000.0,0007.95,0003.18,0002.29
2023-07-27 15:47:00,SystemResetWarning,0833.8,5.00,000.00,029.4,026.0,000.0,037.7,030.4,25.3,0000.0,0008.01,0003.20,0002.31
2023-07-27 15:48:00,SystemResetWarning,0833.8,5.00,000.00,029.3,026.4,000.0,037.7,030.5,25.9,0000.0,0008.30,0003.22,0002.32
2023-07-27 15:49:00,SystemResetWarning,0833.7,4.99,000.00,029.4,026.7,000.0,037.7,030.6,26.5,0000.0,0008.31,0003.23,0002.31
2023-07-27 15:50:00,SystemResetWarning,0833.8,5.00,000.00,029.4,027.1,000.0,037.7,030.7,27.3,0000.0,0008.33,0003.23,0002.33
2023-07-27 15:51:00,SystemResetWarning,0833.8,5.00,000.00,029.4,027.4,000.0,037.7,030.7,28.0,0000.0,0007.94,0003.22,0002.33
2023-07-27 15:52:00,SystemResetWarning,0833.9,4.99,000.00,029.4,027.5,000.0,037.7,030.8,29.0,0000.0,0007.35,0003.24,0002.34
2023-07-27 15:53:00,SystemResetWarning,0833.8,4.99,000.00,029.4,026.5,000.0,037.6,030.7,28.9,0000.0,0007.38,0003.25,0002.37
2023-07-27 15:54:00,SystemResetWarning,0833.8,5.01,000.00,029.3,025.4,000.0,037.5,030.5,30.0,0000.0,0007.72,0003.25,0002.40
2023-07-27 15:55:00,SystemResetWarning,0833.8,5.01,000.00,029.3,025.4,000.0,037.5,030.4,30.0,0000.0,0008.05,0003.26,0002.40
2023-07-27 15:56:00,SystemResetWarning,0833.8,4.99,000.00,029.2,025.8,000.0,037.5,030.3,31.3,0000.0,0008.16,0003.26,0002.41
2023-07-27 15:57:00,SystemResetWarning,0833.8,4.99,000.00,029.2,026.2,000.0,037.5,030.4,31.2,0000.0,0008.12,0003.26,0002.42
2023-07-27 15:58:00,SystemResetWarning,0833.8,5.01,000.00,029.2,026.5,000.0,037.6,030.5,29.2,0000.0,0008.06,0003.27,0002.42
2023-07-27 15:59:00,SystemResetWarning,0833.8,5.01,000.00,029.2,026.9,000.0,037.6,030.6,29.2,0000.0,0007.80,0003.27,0002.43
